Time,TemperatureF,DewpointF,PressureIn,WindDirection,WindDirectionDegrees,WindSpeedMPH,WindSpeedGustMPH,Humidity,HourlyPrecipIn,Conditions,Clouds,dailyrainin,SoftwareType,DateUTC
2013-04-29 00:02:00,60.0,11.0,29.91,ESE,109,5.0,7.0,14,0.00,,,-99.99,,2013-04-29 06:02:00,
2013-04-29 00:11:00,60.0,11.0,29.91,ESE,109,5.0,7.0,14,0.00,,,-99.99,,2013-04-29 06:11:00,
2013-04-29 00:21:00,59.0,6.0,29.91,ESE,113,0.0,7.0,12,0.00,,,-99.99,,2013-04-29 06:21:00,
2013-04-29 00:32:00,60.0,5.0,29.92,SSE,157,0.0,4.0,11,0.00,,,-99.99,,2013-04-29 06:32:00,
2013-04-29 00:42:00,60.0,5.0,29.92,SSE,157,0.0,4.0,11,0.00,,,-99.99,,2013-04-29 06:42:00,
2013-04-29 00:52:00,58.0,15.0,29.92,East,101,8.0,8.0,18,0.00,,,-99.99,,2013-04-29 06:52:00,
2013-04-29 01:01:00,56.0,14.0,29.93,East,97,8.0,9.0,19,0.00,,,-99.99,,2013-04-29 07:01:00,
2013-04-29 01:11:00,56.0,14.0,29.93,East,97,8.0,9.0,19,0.00,,,-99.99,,2013-04-29 07:11:00,
2013-04-29 01:21:00,57.0,7.0,29.92,SE,129,5.0,6.0,13,0.00,,,-99.99,,2013-04-29 07:21:00,
2013-04-29 01:32:00,57.0,8.0,29.93,ESE,109,6.0,6.0,14,0.00,,,-99.99,,2013-04-29 07:32:00,
2013-04-29 01:41:00,57.0,8.0,29.93,ESE,109,6.0,6.0,14,0.00,,,-99.99,,2013-04-29 07:41:00,
2013-04-29 01:52:00,57.0,8.0,29.92,ESE,102,6.0,8.0,14,0.00,,,-99.99,,2013-04-29 07:52:00,
2013-04-29 02:02:00,57.0,11.0,29.92,East,94,8.0,8.0,16,0.00,,,-99.99,,2013-04-29 08:02:00,
2013-04-29 02:11:00,57.0,11.0,29.92,East,94,8.0,8.0,16,0.00,,,-99.99,,2013-04-29 08:11:00,
2013-04-29 02:21:00,56.0,12.0,29.91,East,91,8.0,8.0,17,0.00,,,-99.99,,2013-04-29 08:21:00,
2013-04-29 02:31:00,55.0,8.0,29.91,ESE,108,5.0,7.0,15,0.00,,,-99.99,,2013-04-29 08:31:00,
2013-04-29 02:42:00,55.0,8.0,29.91,ESE,108,5.0,7.0,15,0.00,,,-99.99,,2013-04-29 08:42:00,
2013-04-29 02:51:00,57.0,7.0,29.91,SE,132,5.0,8.0,13,0.00,,,-99.99,,2013-04-29 08:51:00,
2013-04-29 03:01:00,55.0,11.0,29.91,East,91,0.0,5.0,17,0.00,,,-99.99,,2013-04-29 09:01:00,
2013-04-29 03:12:00,55.0,11.0,29.91,East,91,0.0,5.0,17,0.00,,,-99.99,,2013-04-29 09:12:00,
2013-04-29 03:21:00,54.0,13.0,29.91,ESE,102,6.0,7.0,19,0.00,,,-99.99,,2013-04-29 09:21:00,
2013-04-29 03:32:00,54.0,11.0,29.92,ESE,104,6.0,8.0,18,0.00,,,-99.99,,2013-04-29 09:32:00,
2013-04-29 03:42:00,54.0,11.0,29.92,ESE,104,6.0,8.0,18,0.00,,,-99.99,,2013-04-29 09:42:00,
2013-04-29 03:53:00,53.0,17.0,29.92,East,97,9.0,9.0,24,0.00,,,-99.99,,2013-04-29 09:53:00,
2013-04-29 04:02:00,53.0,16.0,29.93,East,99,9.0,9.0,23,0.00,,,-99.99,,2013-04-29 10:02:00,
2013-04-29 04:12:00,53.0,16.0,29.93,East,99,9.0,9.0,23,0.00,,,-99.99,,2013-04-29 10:12:00,
2013-04-29 04:23:00,53.0,16.0,29.93,ESE,111,7.0,9.0,23,0.00,,,-99.99,,2013-04-29 10:23:00,
2013-04-29 04:32:00,53.0,15.0,29.93,East,97,7.0,7.0,22,0.00,,,-99.99,,2013-04-29 10:32:00,
2013-04-29 04:42:00,53.0,15.0,29.93,East,97,7.0,7.0,22,0.00,,,-99.99,,2013-04-29 10:42:00,
2013-04-29 04:52:00,54.0,16.0,29.93,East,90,6.0,7.0,22,0.00,,,-99.99,,2013-04-29 10:52:00,
2013-04-29 05:02:00,53.0,14.0,29.93,East,97,7.0,7.0,21,0.00,,,-99.99,,2013-04-29 11:02:00,
2013-04-29 05:12:00,53.0,14.0,29.93,East,97,7.0,7.0,21,0.00,,,-99.99,,2013-04-29 11:12:00,
2013-04-29 05:21:00,52.0,14.0,29.93,East,97,7.0,8.0,22,0.00,,,-99.99,,2013-04-29 11:21:00,
2013-04-29 05:32:00,53.0,13.0,29.94,East,101,5.0,7.0,20,0.00,,,-99.99,,2013-04-29 11:32:00,
2013-04-29 05:41:00,53.0,13.0,29.94,East,101,5.0,7.0,20,0.00,,,-99.99,,2013-04-29 11:41:00,
2013-04-29 05:52:00,53.0,13.0,29.94,East,95,4.0,5.0,20,0.00,,,-99.99,,2013-04-29 11:52:00,
2013-04-29 06:01:00,53.0,15.0,29.95,ESE,106,5.0,6.0,22,0.00,,,-99.99,,2013-04-29 12:01:00,
2013-04-29 06:12:00,53.0,15.0,29.95,ESE,106,5.0,6.0,22,0.00,,,-99.99,,2013-04-29 12:12:00,
2013-04-29 06:22:00,51.0,16.0,29.95,East,85,8.0,8.0,25,0.00,,,-99.99,,2013-04-29 12:22:00,
2013-04-29 06:31:00,51.0,16.0,29.95,East,98,7.0,8.0,25,0.00,,,-99.99,,2013-04-29 12:31:00,
2013-04-29 06:41:00,51.0,16.0,29.95,East,98,7.0,8.0,25,0.00,,,-99.99,,2013-04-29 12:41:00,
2013-04-29 06:52:00,51.0,14.0,29.96,ESE,102,7.0,9.0,22,0.00,,,-99.99,,2013-04-29 12:52:00,
2013-04-29 07:01:00,52.0,14.0,29.96,East,97,5.0,8.0,22,0.00,,,-99.99,,2013-04-29 13:01:00,
2013-04-29 07:11:00,52.0,14.0,29.96,East,97,5.0,8.0,22,0.00,,,-99.99,,2013-04-29 13:11:00,
2013-04-29 07:21:00,52.0,17.0,29.96,East,91,6.0,7.0,25,0.00,,,-99.99,,2013-04-29 13:21:00,
2013-04-29 07:31:00,53.0,17.0,29.96,SE,146,3.0,4.0,24,0.00,,,-99.99,,2013-04-29 13:31:00,
2013-04-29 07:42:00,53.0,17.0,29.96,SE,146,3.0,4.0,24,0.00,,,-99.99,,2013-04-29 13:42:00,
2013-04-29 07:52:00,56.0,14.0,29.96,SSE,167,1.0,3.0,19,0.00,,,-99.99,,2013-04-29 13:52:00,
2013-04-29 08:02:00,58.0,12.0,29.95,South,172,0.0,0.0,16,0.00,,,-99.99,,2013-04-29 14:02:00,
2013-04-29 08:11:00,58.0,12.0,29.95,South,172,0.0,0.0,16,0.00,,,-99.99,,2013-04-29 14:11:00,
2013-04-29 08:21:00,59.0,13.0,29.95,South,172,0.0,0.0,16,0.00,,,-99.99,,2013-04-29 14:21:00,
2013-04-29 08:32:00,60.0,11.0,29.94,South,189,4.0,4.0,14,0.00,,,-99.99,,2013-04-29 14:32:00,
2013-04-29 08:42:00,60.0,11.0,29.94,South,189,4.0,4.0,14,0.00,,,-99.99,,2013-04-29 14:42:00,
2013-04-29 08:52:00,61.0,8.0,29.94,SSW,206,4.0,5.0,12,0.00,,,-99.99,,2013-04-29 14:52:00,
2013-04-29 09:01:00,62.0,11.0,29.93,SSW,194,3.0,5.0,13,0.00,,,-99.99,,2013-04-29 15:01:00,
2013-04-29 09:12:00,62.0,11.0,29.93,SSW,194,3.0,5.0,13,0.00,,,-99.99,,2013-04-29 15:12:00,
2013-04-29 09:21:00,64.0,8.0,29.92,SSW,213,4.0,4.0,11,0.00,,,-99.99,,2013-04-29 15:21:00,
2013-04-29 09:33:00,65.0,13.0,29.91,WNW,284,2.0,5.0,13,0.00,,,-99.99,,2013-04-29 15:33:00,
2013-04-29 09:42:00,65.0,13.0,29.91,WNW,284,2.0,5.0,13,0.00,,,-99.99,,2013-04-29 15:42:00,
2013-04-29 09:53:00,65.0,11.0,29.90,SW,215,2.0,8.0,12,0.00,,,-99.99,,2013-04-29 15:53:00,
2013-04-29 10:02:00,66.0,10.0,29.90,SSW,195,4.0,6.0,11,0.00,,,-99.99,,2013-04-29 16:02:00,
2013-04-29 10:12:00,66.0,10.0,29.90,SSW,195,4.0,6.0,11,0.00,,,-99.99,,2013-04-29 16:12:00,
2013-04-29 10:23:00,67.0,9.0,29.89,WSW,248,5.0,9.0,10,0.00,,,-99.99,,2013-04-29 16:23:00,
2013-04-29 10:32:00,68.0,5.0,29.88,SW,219,5.0,9.0,8,0.00,,,-99.99,,2013-04-29 16:32:00,
2013-04-29 10:42:00,68.0,5.0,29.88,SW,219,5.0,9.0,8,0.00,,,-99.99,,2013-04-29 16:42:00,
2013-04-29 10:52:00,69.0,2.0,29.88,WSW,243,6.0,10.0,7,0.00,,,-99.99,,2013-04-29 16:52:00,
2013-04-29 11:02:00,70.0,0.0,29.88,WSW,244,7.0,10.0,6,0.00,,,-99.99,,2013-04-29 17:02:00,
2013-04-29 11:12:00,70.0,0.0,29.88,WSW,244,7.0,10.0,6,0.00,,,-99.99,,2013-04-29 17:12:00,
2013-04-29 11:22:00,70.0,0.0,29.87,SW,219,3.0,10.0,6,0.00,,,-99.99,,2013-04-29 17:22:00,
2013-04-29 11:32:00,71.0,1.0,29.86,SSE,168,8.0,11.0,6,0.00,,,-99.99,,2013-04-29 17:32:00,
2013-04-29 11:42:00,71.0,1.0,29.86,SSE,168,8.0,11.0,6,0.00,,,-99.99,,2013-04-29 17:42:00,
2013-04-29 11:52:00,72.0,1.0,29.86,SSE,168,6.0,10.0,6,0.00,,,-99.99,,2013-04-29 17:52:00,
2013-04-29 12:01:00,73.0,2.0,29.86,WSW,243,6.0,9.0,6,0.00,,,-99.99,,2013-04-29 18:01:00,
2013-04-29 12:13:00,73.0,2.0,29.86,WSW,243,6.0,9.0,6,0.00,,,-99.99,,2013-04-29 18:13:00,
2013-04-29 12:22:00,73.0,2.0,29.84,WSW,254,3.0,9.0,6,0.00,,,-99.99,,2013-04-29 18:22:00,
2013-04-29 12:32:00,73.0,2.0,29.83,SSE,147,4.0,13.0,6,0.00,,,-99.99,,2013-04-29 18:32:00,
2013-04-29 12:42:00,73.0,2.0,29.83,SSE,147,4.0,13.0,6,0.00,,,-99.99,,2013-04-29 18:42:00,
2013-04-29 12:52:00,74.0,3.0,29.82,SSW,210,9.0,9.0,6,0.00,,,-99.99,,2013-04-29 18:52:00,
2013-04-29 13:01:00,75.0,3.0,29.81,WNW,303,6.0,14.0,6,0.00,,,-99.99,,2013-04-29 19:01:00,
2013-04-29 13:11:00,75.0,3.0,29.81,WNW,303,6.0,14.0,6,0.00,,,-99.99,,2013-04-29 19:11:00,
2013-04-29 13:21:00,76.0,4.0,29.80,WSW,257,10.0,12.0,6,0.00,,,-99.99,,2013-04-29 19:21:00,
2013-04-29 13:31:00,76.0,4.0,29.79,NW,322,8.0,10.0,6,0.00,,,-99.99,,2013-04-29 19:31:00,
2013-04-29 13:41:00,76.0,4.0,29.79,NW,322,8.0,10.0,6,0.00,,,-99.99,,2013-04-29 19:41:00,
2013-04-29 13:52:00,76.0,4.0,29.77,SSE,149,12.0,12.0,6,0.00,,,-99.99,,2013-04-29 19:52:00,
2013-04-29 14:02:00,78.0,2.0,29.76,West,268,11.0,16.0,5,0.00,,,-99.99,,2013-04-29 20:02:00,
2013-04-29 14:11:00,78.0,2.0,29.76,West,268,11.0,16.0,5,0.00,,,-99.99,,2013-04-29 20:11:00,
2013-04-29 14:21:00,78.0,2.0,29.75,SW,229,7.0,8.0,5,0.00,,,-99.99,,2013-04-29 20:21:00,
2013-04-29 14:32:00,78.0,2.0,29.74,WSW,244,5.0,15.0,5,0.00,,,-99.99,,2013-04-29 20:32:00,
2013-04-29 14:42:00,78.0,2.0,29.74,WSW,244,5.0,15.0,5,0.00,,,-99.99,,2013-04-29 20:42:00,
2013-04-29 14:52:00,79.0,2.0,29.72,SW,236,10.0,14.0,5,0.00,,,-99.99,,2013-04-29 20:52:00,
2013-04-29 15:01:00,79.0,2.0,29.72,WNW,291,7.0,22.0,5,0.00,,,-99.99,,2013-04-29 21:01:00,
2013-04-29 15:11:00,79.0,2.0,29.72,WNW,291,7.0,22.0,5,0.00,,,-99.99,,2013-04-29 21:11:00,
2013-04-29 15:21:00,80.0,3.0,29.71,West,270,10.0,22.0,5,0.00,,,-99.99,,2013-04-29 21:21:00,
2013-04-29 15:33:00,80.0,3.0,29.70,West,265,13.0,17.0,5,0.00,,,-99.99,,2013-04-29 21:33:00,
2013-04-29 15:42:00,80.0,3.0,29.70,West,265,13.0,17.0,5,0.00,,,-99.99,,2013-04-29 21:42:00,
2013-04-29 15:53:00,79.0,-2.0,29.70,West,264,9.0,19.0,4,0.00,,,-99.99,,2013-04-29 21:53:00,
2013-04-29 16:02:00,81.0,-1.0,29.68,WSW,254,12.0,19.0,4,0.00,,,-99.99,,2013-04-29 22:02:00,
2013-04-29 16:13:00,81.0,-1.0,29.68,WSW,254,12.0,19.0,4,0.00,,,-99.99,,2013-04-29 22:13:00,
2013-04-29 16:23:00,81.0,4.0,29.68,West,275,18.0,19.0,5,0.00,,,-99.99,,2013-04-29 22:23:00,
2013-04-29 16:32:00,82.0,0.0,29.67,SW,234,13.0,15.0,4,0.00,,,-99.99,,2013-04-29 22:32:00,
2013-04-29 16:42:00,82.0,0.0,29.67,SW,234,13.0,15.0,4,0.00,,,-99.99,,2013-04-29 22:42:00,
2013-04-29 16:52:00,81.0,-1.0,29.66,WSW,243,12.0,23.0,4,0.00,,,-99.99,,2013-04-29 22:52:00,
2013-04-29 17:02:00,81.0,-1.0,29.66,West,274,10.0,20.0,4,0.00,,,-99.99,,2013-04-29 23:02:00,
2013-04-29 17:11:00,81.0,-1.0,29.66,West,274,10.0,20.0,4,0.00,,,-99.99,,2013-04-29 23:11:00,
2013-04-29 17:22:00,80.0,3.0,29.66,SW,234,12.0,18.0,5,0.00,,,-99.99,,2013-04-29 23:22:00,
2013-04-29 17:32:00,81.0,-1.0,29.66,West,270,11.0,18.0,4,0.00,,,-99.99,,2013-04-29 23:32:00,
2013-04-29 17:42:00,81.0,-1.0,29.66,West,270,11.0,18.0,4,0.00,,,-99.99,,2013-04-29 23:42:00,
2013-04-29 17:52:00,82.0,4.0,29.65,WSW,244,17.0,37.0,5,0.00,,,-99.99,,2013-04-29 23:52:00,
2013-04-29 18:01:00,79.0,2.0,29.65,WSW,240,13.0,22.0,5,0.00,,,-99.99,,2013-04-30 00:01:00,
2013-04-29 18:11:00,79.0,2.0,29.65,WSW,240,13.0,22.0,5,0.00,,,-99.99,,2013-04-30 00:11:00,
2013-04-29 18:21:00,79.0,2.0,29.65,WSW,258,11.0,26.0,5,0.00,,,-99.99,,2013-04-30 00:21:00,
2013-04-29 18:32:00,79.0,2.0,29.66,WNW,282,9.0,15.0,5,0.00,,,-99.99,,2013-04-30 00:32:00,
2013-04-29 18:41:00,79.0,2.0,29.66,WNW,282,9.0,15.0,5,0.00,,,-99.99,,2013-04-30 00:41:00,
2013-04-29 18:52:00,79.0,2.0,29.66,West,267,8.0,17.0,5,0.00,,,-99.99,,2013-04-30 00:52:00,
2013-04-29 19:01:00,79.0,2.0,29.66,WSW,250,8.0,10.0,5,0.00,,,-99.99,,2013-04-30 01:01:00,
2013-04-29 19:11:00,79.0,2.0,29.66,WSW,250,8.0,10.0,5,0.00,,,-99.99,,2013-04-30 01:11:00,
2013-04-29 19:21:00,79.0,2.0,29.66,West,262,8.0,11.0,5,0.00,,,-99.99,,2013-04-30 01:21:00,
2013-04-29 19:32:00,79.0,2.0,29.66,WSW,258,5.0,10.0,5,0.00,,,-99.99,,2013-04-30 01:32:00,
2013-04-29 19:41:00,79.0,2.0,29.66,WSW,258,5.0,10.0,5,0.00,,,-99.99,,2013-04-30 01:41:00,
2013-04-29 19:52:00,79.0,2.0,29.66,WNW,295,6.0,9.0,5,0.00,,,-99.99,,2013-04-30 01:52:00,
2013-04-29 20:01:00,78.0,2.0,29.67,West,264,4.0,7.0,5,0.00,,,-99.99,,2013-04-30 02:01:00,
2013-04-29 20:11:00,78.0,6.0,29.67,West,265,3.0,9.0,6,0.00,,,-99.99,,2013-04-30 02:11:00,
2013-04-29 20:21:00,78.0,6.0,29.67,West,265,3.0,9.0,6,0.00,,,-99.99,,2013-04-30 02:21:00,
2013-04-29 20:31:00,77.0,5.0,29.68,WNW,285,6.0,7.0,6,0.00,,,-99.99,,2013-04-30 02:31:00,
2013-04-29 20:41:00,77.0,5.0,29.68,WNW,285,6.0,7.0,6,0.00,,,-99.99,,2013-04-30 02:41:00,
2013-04-29 20:51:00,76.0,4.0,29.68,NW,323,5.0,5.0,6,0.00,,,-99.99,,2013-04-30 02:51:00,
2013-04-29 21:01:00,76.0,4.0,29.69,West,278,0.0,5.0,6,0.00,,,-99.99,,2013-04-30 03:01:00,
2013-04-29 21:11:00,75.0,3.0,29.70,West,278,0.0,0.0,6,0.00,,,-99.99,,2013-04-30 03:11:00,
2013-04-29 21:21:00,75.0,3.0,29.70,West,278,0.0,0.0,6,0.00,,,-99.99,,2013-04-30 03:21:00,
2013-04-29 21:33:00,74.0,6.0,29.70,West,278,0.0,0.0,7,0.00,,,-99.99,,2013-04-30 03:33:00,
2013-04-29 21:42:00,74.0,6.0,29.70,West,278,0.0,0.0,7,0.00,,,-99.99,,2013-04-30 03:42:00,
2013-04-29 21:52:00,72.0,12.0,29.71,West,278,0.0,0.0,10,0.00,,,-99.99,,2013-04-30 03:52:00,
2013-04-29 22:02:00,69.0,19.0,29.72,ESE,108,6.0,7.0,15,0.00,,,-99.99,,2013-04-30 04:02:00,
2013-04-29 22:12:00,69.0,19.0,29.72,ESE,108,6.0,7.0,15,0.00,,,-99.99,,2013-04-30 04:12:00,
2013-04-29 22:22:00,67.0,19.0,29.72,SE,137,3.0,7.0,16,0.00,,,-99.99,,2013-04-30 04:22:00,
2013-04-29 22:32:00,66.0,17.0,29.73,ESE,116,6.0,7.0,15,0.00,,,-99.99,,2013-04-30 04:32:00,
2013-04-29 22:42:00,66.0,17.0,29.73,ESE,116,6.0,7.0,15,0.00,,,-99.99,,2013-04-30 04:42:00,
2013-04-29 22:52:00,65.0,18.0,29.73,East,88,7.0,9.0,16,0.00,,,-99.99,,2013-04-30 04:52:00,
2013-04-29 23:02:00,65.0,19.0,29.73,East,91,7.0,9.0,17,0.00,,,-99.99,,2013-04-30 05:02:00,
2013-04-29 23:12:00,65.0,19.0,29.73,East,91,7.0,9.0,17,0.00,,,-99.99,,2013-04-30 05:12:00,
2013-04-29 23:22:00,64.0,18.0,29.73,East,90,6.0,9.0,17,0.00,,,-99.99,,2013-04-30 05:22:00,
2013-04-29 23:31:00,64.0,18.0,29.73,East,81,8.0,9.0,17,0.00,,,-99.99,,2013-04-30 05:31:00,
2013-04-29 23:42:00,64.0,18.0,29.73,East,81,8.0,9.0,17,0.00,,,-99.99,,2013-04-30 05:42:00,
2013-04-29 23:51:00,64.0,15.0,29.74,East,97,7.0,10.0,15,0.00,,,-99.99,,2013-04-30 05:51:00,